TimeEST,TemperatureF,Dew PointF,Humidity,Sea Level PressureIn,VisibilityMPH,Wind Direction,Wind SpeedMPH,Gust SpeedMPH,PrecipitationIn,Events,Conditions,WindDirDegrees,DateUTC
12:15 AM,33.8,24.8,70,30.01,10.0,WNW,12.7,-,N/A,,Overcast,290,2013-11-07 05:15:00
12:35 AM,33.8,24.8,70,30.01,10.0,WNW,11.5,18.4,N/A,,Overcast,290,2013-11-07 05:35:00
12:55 AM,33.8,23.0,65,30.02,10.0,WNW,10.4,-,N/A,,Overcast,290,2013-11-07 05:55:00
1:15 AM,33.8,24.8,70,30.02,10.0,WNW,10.4,18.4,N/A,,Overcast,300,2013-11-07 06:15:00
1:35 AM,33.8,23.0,65,30.02,10.0,WNW,9.2,-,N/A,,Overcast,300,2013-11-07 06:35:00
1:55 AM,33.8,23.0,65,30.03,10.0,WNW,9.2,-,N/A,,Overcast,290,2013-11-07 06:55:00
2:15 AM,33.8,24.8,70,30.03,10.0,West,8.1,-,N/A,,Overcast,280,2013-11-07 07:15:00
2:35 AM,33.8,24.8,70,30.03,10.0,West,9.2,-,N/A,,Overcast,280,2013-11-07 07:35:00
2:55 AM,33.8,24.8,70,30.03,10.0,West,8.1,-,N/A,,Overcast,280,2013-11-07 07:55:00
3:15 AM,33.8,24.8,70,30.03,10.0,West,9.2,-,N/A,,Overcast,270,2013-11-07 08:15:00
3:35 AM,33.8,24.8,70,30.03,10.0,West,10.4,-,N/A,,Overcast,280,2013-11-07 08:35:00
3:55 AM,33.8,24.8,70,30.03,10.0,West,9.2,-,N/A,,Overcast,270,2013-11-07 08:55:00
4:15 AM,33.8,24.8,70,30.04,10.0,West,9.2,-,N/A,,Overcast,270,2013-11-07 09:15:00
4:35 AM,33.8,24.8,70,30.04,10.0,West,9.2,-,N/A,,Overcast,270,2013-11-07 09:35:00
4:55 AM,33.8,24.8,70,30.04,10.0,West,9.2,-,N/A,,Overcast,270,2013-11-07 09:55:00
5:15 AM,33.8,24.8,70,30.04,10.0,West,8.1,-,N/A,,Overcast,270,2013-11-07 10:15:00
5:35 AM,33.8,24.8,70,30.04,10.0,West,8.1,-,N/A,,Overcast,260,2013-11-07 10:35:00
5:55 AM,33.8,24.8,70,30.04,10.0,West,9.2,-,N/A,,Overcast,260,2013-11-07 10:55:00
6:15 AM,33.8,24.8,70,30.04,10.0,West,9.2,-,N/A,,Overcast,260,2013-11-07 11:15:00
6:35 AM,33.8,24.8,70,30.04,10.0,West,10.4,-,N/A,,Overcast,260,2013-11-07 11:35:00
6:55 AM,33.8,24.8,70,30.04,10.0,West,10.4,-,N/A,,Overcast,270,2013-11-07 11:55:00
7:15 AM,33.8,24.8,70,30.05,10.0,West,10.4,-,N/A,,Overcast,260,2013-11-07 12:15:00
7:35 AM,33.8,24.8,70,30.04,10.0,West,10.4,-,N/A,,Overcast,260,2013-11-07 12:35:00
7:55 AM,33.8,24.8,70,30.05,10.0,West,11.5,-,N/A,,Overcast,260,2013-11-07 12:55:00
8:15 AM,33.8,24.8,70,30.06,10.0,West,11.5,16.1,N/A,,Overcast,260,2013-11-07 13:15:00
8:35 AM,33.8,24.8,70,30.06,10.0,West,12.7,-,N/A,,Overcast,270,2013-11-07 13:35:00
8:55 AM,33.8,24.8,70,30.05,10.0,West,12.7,17.3,N/A,,Overcast,260,2013-11-07 13:55:00
9:15 AM,33.8,24.8,70,30.06,10.0,West,15.0,-,N/A,,Overcast,260,2013-11-07 14:15:00
9:35 AM,33.8,24.8,70,30.06,10.0,West,11.5,21.9,N/A,,Overcast,260,2013-11-07 14:35:00
9:55 AM,33.8,24.8,70,30.06,10.0,West,13.8,-,N/A,,Overcast,280,2013-11-07 14:55:00
10:15 AM,35.6,26.6,70,30.06,10.0,West,10.4,17.3,N/A,,Overcast,270,2013-11-07 15:15:00
10:35 AM,35.6,24.8,65,30.06,10.0,West,13.8,-,N/A,,Overcast,280,2013-11-07 15:35:00
10:55 AM,35.6,24.8,65,30.07,10.0,WNW,12.7,-,N/A,,Overcast,290,2013-11-07 15:55:00
11:15 AM,35.6,26.6,70,30.07,10.0,West,13.8,-,N/A,,Overcast,280,2013-11-07 16:15:00
11:35 AM,35.6,26.6,70,30.07,10.0,WNW,13.8,-,N/A,,Overcast,290,2013-11-07 16:35:00
11:55 AM,35.6,26.6,70,30.07,10.0,West,12.7,-,N/A,,Overcast,280,2013-11-07 16:55:00
12:15 PM,37.4,26.6,65,30.07,10.0,West,11.5,-,N/A,,Overcast,270,2013-11-07 17:15:00
12:35 PM,37.4,26.6,65,30.06,10.0,WNW,15.0,-,N/A,,Overcast,300,2013-11-07 17:35:00
12:55 PM,37.4,26.6,65,30.06,10.0,West,11.5,-,N/A,,Overcast,280,2013-11-07 17:55:00
1:15 PM,37.4,26.6,65,30.05,10.0,West,10.4,-,N/A,,Overcast,270,2013-11-07 18:15:00
1:35 PM,37.4,26.6,65,30.04,10.0,West,15.0,-,N/A,,Overcast,280,2013-11-07 18:35:00
1:55 PM,37.4,26.6,65,30.04,10.0,West,15.0,20.7,N/A,,Overcast,280,2013-11-07 18:55:00
2:15 PM,37.4,26.6,65,30.04,10.0,West,12.7,-,N/A,,Overcast,280,2013-11-07 19:15:00
2:35 PM,37.4,26.6,65,30.04,10.0,West,13.8,18.4,N/A,,Overcast,280,2013-11-07 19:35:00
2:55 PM,37.4,24.8,60,30.04,10.0,WNW,12.7,19.6,N/A,,Overcast,290,2013-11-07 19:55:00
3:15 PM,37.4,24.8,60,30.04,10.0,West,13.8,17.3,N/A,,Overcast,280,2013-11-07 20:15:00
3:35 PM,37.4,26.6,65,30.04,10.0,West,17.3,20.7,N/A,,Overcast,280,2013-11-07 20:35:00
3:55 PM,37.4,24.8,60,30.05,10.0,WNW,13.8,17.3,N/A,,Overcast,300,2013-11-07 20:55:00
4:15 PM,37.4,24.8,60,30.04,10.0,WNW,16.1,20.7,N/A,,Overcast,290,2013-11-07 21:15:00
4:35 PM,37.4,24.8,60,30.05,10.0,WNW,10.4,-,N/A,,Overcast,290,2013-11-07 21:35:00
4:55 PM,37.4,24.8,60,30.06,10.0,WNW,11.5,17.3,N/A,,Overcast,300,2013-11-07 21:55:00
5:15 PM,37.4,24.8,60,30.06,10.0,West,10.4,-,N/A,,Overcast,280,2013-11-07 22:15:00
5:35 PM,35.6,24.8,65,30.06,10.0,WNW,11.5,-,N/A,,Overcast,290,2013-11-07 22:35:00
5:55 PM,35.6,23.0,60,30.07,10.0,West,11.5,-,N/A,,Overcast,280,2013-11-07 22:55:00
6:15 PM,35.6,23.0,60,30.07,10.0,West,11.5,-,N/A,,Overcast,280,2013-11-07 23:15:00
6:35 PM,35.6,23.0,60,30.08,10.0,West,12.7,18.4,N/A,,Overcast,280,2013-11-07 23:35:00
6:55 PM,35.6,26.6,70,30.08,10.0,West,10.4,-,N/A,,Overcast,280,2013-11-07 23:55:00
7:15 PM,35.6,24.8,65,30.09,10.0,WNW,10.4,-,N/A,,Overcast,290,2013-11-08 00:15:00
7:35 PM,33.8,26.6,75,30.09,10.0,WNW,11.5,-,N/A,,Overcast,290,2013-11-08 00:35:00
7:55 PM,33.8,26.6,75,30.09,10.0,WNW,8.1,-,N/A,,Mostly Cloudy,290,2013-11-08 00:55:00
8:15 PM,33.8,24.8,70,30.09,10.0,West,6.9,-,N/A,,Mostly Cloudy,280,2013-11-08 01:15:00
8:35 PM,33.8,24.8,70,30.09,10.0,West,8.1,-,N/A,,Overcast,280,2013-11-08 01:35:00
8:55 PM,33.8,24.8,70,30.09,10.0,West,9.2,-,N/A,,Overcast,280,2013-11-08 01:55:00
9:15 PM,32.0,24.8,75,30.09,10.0,West,10.4,-,N/A,,Scattered Clouds,270,2013-11-08 02:15:00
9:35 PM,30.2,24.8,80,30.09,10.0,West,10.4,-,N/A,,Clear,270,2013-11-08 02:35:00
9:55 PM,30.2,24.8,80,30.09,10.0,West,8.1,-,N/A,,Clear,270,2013-11-08 02:55:00
10:15 PM,30.2,23.0,75,30.09,10.0,West,5.8,-,N/A,,Clear,270,2013-11-08 03:15:00
10:35 PM,30.2,23.0,75,30.09,10.0,West,4.6,-,N/A,,Scattered Clouds,280,2013-11-08 03:35:00
10:55 PM,28.4,24.8,86,30.09,10.0,West,5.8,-,N/A,,Partly Cloudy,280,2013-11-08 03:55:00
11:15 PM,28.4,24.8,86,30.09,10.0,WNW,6.9,-,N/A,,Clear,290,2013-11-08 04:15:00
11:35 PM,28.4,24.8,86,30.09,10.0,West,6.9,-,N/A,,Clear,270,2013-11-08 04:35:00
11:55 PM,28.4,24.8,86,30.09,10.0,West,5.8,-,N/A,,Partly Cloudy,280,2013-11-08 04:55:00